PWSweather.com
Personal Weather Stations
Station Observations
KNCGREEN1000
Bell Orchard Drive, Greensboro, NC 27455

Bell Orchard DriveGreensboro, NC 27455

Lat: 36.132, Lon: -79.8

Elevation: 876

Station Type: Acurite Atlas

Latest ConditionsUpdated 5:53:01 AM EST Sunday, Dec 15, 2019
Currently Today's Max Today's Min Today's Average
Temperature 39.4°F4.1°C 40.7°F4.8°C 38.5°F3.6°C 39.6°F4.2°C
Dew Point 34.3°F1.3°C 35.2°F1.8°C 33.7°F0.9°C 34.4°F1.3°C
Winds 2.0 mph SSE3.2 kmh SSE 8.0 mph -12.9 kmh - - 1.8 mph 2.9 kmh
Wind Gusts -- -- - -
Humidity 82% 86% 79% 82%
Pressure 30.00 in1015.9 mb 30.00 in1015.9 mb 29.90 in1012.5 mb -
Hour Temp Dew Point Humidity Winds Wind Gusts Pressure Precip Precip Rate Daily Precip Total
05:53 AM 39.4°F4.1°C 34.3°F1.3°C 82% 2.0 mph SSE3.2 kmh SSE -- 30.00 in1015.9 mb 0.00 in0.0 mm 0.00 in0.0 mm 0.00 in0.0 mm
05:48 AM 39.6°F4.2°C 34.1°F1.2°C 81% 1.0 mph S1.6 kmh S -- 30.00 in1015.9 mb 0.00 in0.0 mm 0.00 in0.0 mm 0.00 in0.0 mm
05:43 AM 39.8°F4.3°C 34.3°F1.3°C 81% 2.0 mph S3.2 kmh S -- 30.00 in1015.9 mb 0.00 in0.0 mm 0.00 in0.0 mm 0.00 in0.0 mm
05:38 AM 40.0°F4.4°C 34.5°F1.4°C 81% 2.0 mph SSW3.2 kmh SSW -- 30.00 in1015.9 mb 0.00 in0.0 mm 0.00 in0.0 mm 0.00 in0.0 mm
05:33 AM 40.1°F4.5°C 34.7°F1.5°C 81% 3.0 mph S4.8 kmh S -- 29.99 in1015.6 mb 0.00 in0.0 mm 0.00 in0.0 mm 0.00 in0.0 mm
05:28 AM 40.2°F4.6°C 34.5°F1.4°C 80% 1.0 mph SSE1.6 kmh SSE -- 29.99 in1015.6 mb 0.00 in0.0 mm 0.00 in0.0 mm 0.00 in0.0 mm
05:23 AM 40.4°F4.7°C 34.7°F1.5°C 80% 2.0 mph SSE3.2 kmh SSE -- 29.99 in1015.6 mb 0.00 in0.0 mm 0.00 in0.0 mm 0.00 in0.0 mm
05:18 AM 40.6°F4.8°C 34.9°F1.6°C 80% 2.0 mph SSE3.2 kmh SSE -- 29.99 in1015.6 mb 0.00 in0.0 mm 0.00 in0.0 mm 0.00 in0.0 mm
05:13 AM 40.6°F4.8°C 34.9°F1.6°C 80% 1.0 mph SSW1.6 kmh SSW -- 29.99 in1015.6 mb 0.00 in0.0 mm 0.00 in0.0 mm 0.00 in0.0 mm
05:08 AM 40.6°F4.8°C 34.9°F1.6°C 80% 2.0 mph S3.2 kmh S -- 29.98 in1015.2 mb 0.00 in0.0 mm 0.00 in0.0 mm 0.00 in0.0 mm
05:03 AM 40.5°F4.7°C 34.7°F1.5°C 80% 2.0 mph SSW3.2 kmh SSW -- 29.98 in1015.2 mb 0.00 in0.0 mm 0.00 in0.0 mm 0.00 in0.0 mm
04:58 AM 40.5°F4.7°C 34.7°F1.5°C 80% 3.0 mph W4.8 kmh W -- 29.98 in1015.2 mb 0.00 in0.0 mm 0.00 in0.0 mm 0.00 in0.0 mm
04:53 AM 40.3°F4.6°C 34.5°F1.4°C 80% 3.0 mph W4.8 kmh W -- 29.98 in1015.2 mb 0.00 in0.0 mm 0.00 in0.0 mm 0.00 in0.0 mm
04:48 AM 40.1°F4.5°C 34.4°F1.3°C 80% 8.0 mph WSW12.9 kmh WSW -- 29.98 in1015.2 mb 0.00 in0.0 mm 0.00 in0.0 mm 0.00 in0.0 mm
04:43 AM 40.1°F4.5°C 34.4°F1.3°C 80% 4.0 mph S6.4 kmh S -- 29.98 in1015.2 mb 0.00 in0.0 mm 0.00 in0.0 mm 0.00 in0.0 mm
04:38 AM 40.1°F4.5°C 34.4°F1.3°C 80% 3.0 mph SSW4.8 kmh SSW -- 29.97 in1014.9 mb 0.00 in0.0 mm 0.00 in0.0 mm 0.00 in0.0 mm
04:33 AM 40.2°F4.6°C 34.5°F1.4°C 80% 3.0 mph S4.8 kmh S -- 29.97 in1014.9 mb 0.00 in0.0 mm 0.00 in0.0 mm 0.00 in0.0 mm
04:28 AM 40.4°F4.7°C 34.4°F1.3°C 79% 2.0 mph SSE3.2 kmh SSE -- 29.97 in1014.9 mb 0.00 in0.0 mm 0.00 in0.0 mm 0.00 in0.0 mm
04:23 AM 40.5°F4.7°C 34.4°F1.3°C 79% 2.0 mph SW3.2 kmh SW -- 29.97 in1014.9 mb 0.00 in0.0 mm 0.00 in0.0 mm 0.00 in0.0 mm
04:18 AM 40.5°F4.7°C 34.4°F1.3°C 79% 2.0 mph SSW3.2 kmh SSW -- 29.97 in1014.9 mb 0.00 in0.0 mm 0.00 in0.0 mm 0.00 in0.0 mm
04:13 AM 40.7°F4.8°C 34.6°F1.4°C 79% 2.0 mph S3.2 kmh S -- 29.97 in1014.9 mb 0.00 in0.0 mm 0.00 in0.0 mm 0.00 in0.0 mm
04:08 AM 40.5°F4.7°C 34.4°F1.3°C 79% 3.0 mph S4.8 kmh S -- 29.97 in1014.9 mb 0.00 in0.0 mm 0.00 in0.0 mm 0.00 in0.0 mm
04:03 AM 40.5°F4.7°C 34.4°F1.3°C 79% 2.0 mph SW3.2 kmh SW -- 29.96 in1014.6 mb 0.00 in0.0 mm 0.00 in0.0 mm 0.00 in0.0 mm
03:58 AM 40.5°F4.7°C 34.4°F1.3°C 79% 2.0 mph WSW3.2 kmh WSW -- 29.97 in1014.9 mb 0.00 in0.0 mm 0.00 in0.0 mm 0.00 in0.0 mm
03:53 AM 40.3°F4.6°C 34.5°F1.4°C 80% 3.0 mph WNW4.8 kmh WNW -- 29.97 in1014.9 mb 0.00 in0.0 mm 0.00 in0.0 mm 0.00 in0.0 mm
03:48 AM 40.0°F4.4°C 34.2°F1.2°C 80% 3.0 mph WSW4.8 kmh WSW -- 29.97 in1014.9 mb 0.00 in0.0 mm 0.00 in0.0 mm 0.00 in0.0 mm
03:43 AM 39.5°F4.2°C 34.1°F1.2°C 81% 4.0 mph SSW6.4 kmh SSW -- 29.97 in1014.9 mb 0.00 in0.0 mm 0.00 in0.0 mm 0.00 in0.0 mm
03:38 AM 39.1°F3.9°C 33.9°F1.1°C 82% 2.0 mph SW3.2 kmh SW -- 29.97 in1014.9 mb 0.00 in0.0 mm 0.00 in0.0 mm 0.00 in0.0 mm
03:33 AM 38.9°F3.8°C 33.7°F0.9°C 82% 3.0 mph SE4.8 kmh SE -- 29.97 in1014.9 mb 0.00 in0.0 mm 0.00 in0.0 mm 0.00 in0.0 mm
03:28 AM 38.8°F3.8°C 33.7°F0.9°C 82% 1.0 mph SE1.6 kmh SE -- 29.97 in1014.9 mb 0.00 in0.0 mm 0.00 in0.0 mm 0.00 in0.0 mm
03:23 AM 38.7°F3.7°C 33.9°F1.1°C 83% Calm Calm -- 29.96 in1014.6 mb 0.00 in0.0 mm 0.00 in0.0 mm 0.00 in0.0 mm
03:18 AM 38.7°F3.7°C 33.9°F1.1°C 83% Calm Calm -- 29.96 in1014.6 mb 0.00 in0.0 mm 0.00 in0.0 mm 0.00 in0.0 mm
03:13 AM 38.6°F3.7°C 33.9°F1.1°C 83% 2.0 mph SSE3.2 kmh SSE -- 29.96 in1014.6 mb 0.00 in0.0 mm 0.00 in0.0 mm 0.00 in0.0 mm
03:08 AM 38.8°F3.8°C 33.7°F0.9°C 82% 2.0 mph S3.2 kmh S -- 29.96 in1014.6 mb 0.00 in0.0 mm 0.00 in0.0 mm 0.00 in0.0 mm
03:03 AM 39.1°F3.9°C 33.9°F1.1°C 82% Calm Calm -- 29.96 in1014.6 mb 0.00 in0.0 mm 0.00 in0.0 mm 0.00 in0.0 mm
02:58 AM 39.5°F4.2°C 34.1°F1.2°C 81% 2.0 mph S3.2 kmh S -- 29.95 in1014.2 mb 0.00 in0.0 mm 0.00 in0.0 mm 0.00 in0.0 mm
02:53 AM 39.7°F4.3°C 34.3°F1.3°C 81% 1.0 mph S1.6 kmh S -- 29.95 in1014.2 mb 0.00 in0.0 mm 0.00 in0.0 mm 0.00 in0.0 mm
02:48 AM 39.7°F4.3°C 34.3°F1.3°C 81% 1.0 mph S1.6 kmh S -- 29.95 in1014.2 mb 0.00 in0.0 mm 0.00 in0.0 mm 0.00 in0.0 mm
02:43 AM 39.8°F4.3°C 34.3°F1.3°C 81% 4.0 mph S6.4 kmh S -- 29.95 in1014.2 mb 0.00 in0.0 mm 0.00 in0.0 mm 0.00 in0.0 mm
02:38 AM 39.8°F4.3°C 34.3°F1.3°C 81% 1.0 mph S1.6 kmh S -- 29.95 in1014.2 mb 0.00 in0.0 mm 0.00 in0.0 mm 0.00 in0.0 mm
02:33 AM 39.6°F4.2°C 34.1°F1.2°C 81% Calm Calm -- 29.94 in1013.9 mb 0.00 in0.0 mm 0.00 in0.0 mm 0.00 in0.0 mm
02:28 AM 39.2°F4.0°C 34.1°F1.2°C 82% 1.0 mph SE1.6 kmh SE -- 29.94 in1013.9 mb 0.00 in0.0 mm 0.00 in0.0 mm 0.00 in0.0 mm
02:23 AM 38.9°F3.8°C 34.1°F1.2°C 83% 2.0 mph SSW3.2 kmh SSW -- 29.94 in1013.9 mb 0.00 in0.0 mm 0.00 in0.0 mm 0.00 in0.0 mm
02:18 AM 38.8°F3.8°C 34.4°F1.3°C 84% 1.0 mph SE1.6 kmh SE -- 29.94 in1013.9 mb 0.00 in0.0 mm 0.00 in0.0 mm 0.00 in0.0 mm
02:13 AM 38.6°F3.7°C 34.2°F1.2°C 84% 1.0 mph S1.6 kmh S -- 29.94 in1013.9 mb 0.00 in0.0 mm 0.00 in0.0 mm 0.00 in0.0 mm
02:08 AM 38.8°F3.8°C 34.1°F1.2°C 83% 2.0 mph S3.2 kmh S -- 29.93 in1013.5 mb 0.00 in0.0 mm 0.00 in0.0 mm 0.00 in0.0 mm
02:03 AM 38.8°F3.8°C 34.1°F1.2°C 83% 1.0 mph SSE1.6 kmh SSE -- 29.93 in1013.5 mb 0.00 in0.0 mm 0.00 in0.0 mm 0.00 in0.0 mm
01:58 AM 38.7°F3.7°C 34.2°F1.2°C 84% 2.0 mph SW3.2 kmh SW -- 29.93 in1013.5 mb 0.00 in0.0 mm 0.00 in0.0 mm 0.00 in0.0 mm
01:53 AM 38.7°F3.7°C 34.2°F1.2°C 84% 1.0 mph SSE1.6 kmh SSE -- 29.92 in1013.2 mb 0.00 in0.0 mm 0.00 in0.0 mm 0.00 in0.0 mm
01:48 AM 38.8°F3.8°C 34.4°F1.3°C 84% Calm Calm -- 29.92 in1013.2 mb 0.00 in0.0 mm 0.00 in0.0 mm 0.00 in0.0 mm
01:43 AM 38.8°F3.8°C 34.4°F1.3°C 84% 1.0 mph SSW1.6 kmh SSW -- 29.92 in1013.2 mb 0.00 in0.0 mm 0.00 in0.0 mm 0.00 in0.0 mm
01:38 AM 39.1°F3.9°C 34.2°F1.2°C 83% 1.0 mph SSW1.6 kmh SSW -- 29.92 in1013.2 mb 0.00 in0.0 mm 0.00 in0.0 mm 0.00 in0.0 mm
01:33 AM 39.3°F4.1°C 34.3°F1.3°C 82% Calm Calm -- 29.92 in1013.2 mb 0.00 in0.0 mm 0.00 in0.0 mm 0.00 in0.0 mm
01:28 AM 39.6°F4.2°C 34.5°F1.4°C 82% Calm Calm -- 29.92 in1013.2 mb 0.00 in0.0 mm 0.00 in0.0 mm 0.00 in0.0 mm
01:23 AM 39.9°F4.4°C 34.8°F1.6°C 82% Calm Calm -- 29.91 in1012.9 mb 0.00 in0.0 mm 0.00 in0.0 mm 0.00 in0.0 mm
01:18 AM 39.9°F4.4°C 34.8°F1.6°C 82% Calm Calm -- 29.92 in1013.2 mb 0.00 in0.0 mm 0.00 in0.0 mm 0.00 in0.0 mm
01:13 AM 39.7°F4.3°C 34.9°F1.6°C 83% 1.0 mph SSW1.6 kmh SSW -- 29.91 in1012.9 mb 0.00 in0.0 mm 0.00 in0.0 mm 0.00 in0.0 mm
01:08 AM 39.4°F4.1°C 34.6°F1.4°C 83% 2.0 mph WSW3.2 kmh WSW -- 29.91 in1012.9 mb 0.00 in0.0 mm 0.00 in0.0 mm 0.00 in0.0 mm
01:03 AM 39.2°F4.0°C 34.7°F1.5°C 84% 3.0 mph NW4.8 kmh NW -- 29.91 in1012.9 mb 0.00 in0.0 mm 0.00 in0.0 mm 0.00 in0.0 mm
12:58 AM 38.9°F3.8°C 34.7°F1.5°C 85% 5.0 mph W8.0 kmh W -- 29.90 in1012.5 mb 0.00 in0.0 mm 0.00 in0.0 mm 0.00 in0.0 mm
12:53 AM 38.6°F3.7°C 34.8°F1.6°C 86% 2.0 mph SSE3.2 kmh SSE -- 29.91 in1012.9 mb 0.00 in0.0 mm 0.00 in0.0 mm 0.00 in0.0 mm
12:48 AM 38.5°F3.6°C 34.6°F1.4°C 86% 4.0 mph W6.4 kmh W -- 29.91 in1012.9 mb 0.00 in0.0 mm 0.00 in0.0 mm 0.00 in0.0 mm
12:43 AM 38.5°F3.6°C 34.3°F1.3°C 85% 1.0 mph S1.6 kmh S -- 29.90 in1012.5 mb 0.00 in0.0 mm 0.00 in0.0 mm 0.00 in0.0 mm
12:38 AM 38.6°F3.7°C 34.5°F1.4°C 85% 3.0 mph W4.8 kmh W -- 29.90 in1012.5 mb 0.00 in0.0 mm 0.00 in0.0 mm 0.00 in0.0 mm
12:33 AM 38.7°F3.7°C 34.2°F1.2°C 84% Calm Calm -- 29.91 in1012.9 mb 0.00 in0.0 mm 0.00 in0.0 mm 0.00 in0.0 mm
12:28 AM 39.1°F3.9°C 34.2°F1.2°C 83% Calm Calm -- 29.90 in1012.5 mb 0.00 in0.0 mm 0.00 in0.0 mm 0.00 in0.0 mm
12:23 AM 39.4°F4.1°C 34.6°F1.4°C 83% Calm Calm -- 29.91 in1012.9 mb 0.00 in0.0 mm 0.00 in0.0 mm 0.00 in0.0 mm
12:18 AM 39.7°F4.3°C 34.6°F1.4°C 82% Calm Calm -- 29.91 in1012.9 mb 0.00 in0.0 mm 0.00 in0.0 mm 0.00 in0.0 mm
12:13 AM 40.0°F4.4°C 34.8°F1.6°C 82% Calm Calm -- 29.90 in1012.5 mb 0.00 in0.0 mm 0.00 in0.0 mm 0.00 in0.0 mm
12:08 AM 40.2°F4.6°C 35.2°F1.8°C 82% 3.0 mph SW4.8 kmh SW -- 29.91 in1012.9 mb 0.00 in0.0 mm 0.00 in0.0 mm 0.00 in0.0 mm
12:03 AM 40.2°F4.6°C 35.2°F1.8°C 82% Calm Calm -- 29.91 in1012.9 mb 0.00 in0.0 mm 0.00 in0.0 mm 0.00 in0.0 mm